VK2ADG-2 Weather Reports


time (UTC)temp
F
wind
direction
speed
knots
gust
knots
rain 1hr
in
rain 24hr
in
rain mn
in
humidity
%
barometer
mb
20260504081024 60 307 1.7 3.5 0.00 1.06 0.10 65 1013.7
20260504045016 68 304 4.3 9.6 0.00 1.11 0.10 48 1012.6
20260504044034 69 282 7.0 12.2 0.00 1.11 0.10 47 1012.6
20260504043031 68 302 4.3 7.0 0.00 1.11 0.10 48 1012.7
20260504042049 68 315 5.2 12.2 0.00 1.11 0.10 48 1012.5
20260504041026 68 304 5.2 11.3 0.00 1.11 0.10 49 1012.5
20260504040024 68 257 4.3 7.8 0.00 1.11 0.10 50 1012.5
20260504035022 67 313 6.1 11.3 0.00 1.11 0.10 50 1012.6
20260504034020 68 290 5.2 10.4 0.00 1.11 0.10 51 1012.6
20260504033017 68 305 4.3 7.8 0.00 1.11 0.10 53 1012.8
20260504032035 67 309 5.2 11.3 0.00 1.11 0.10 53 1012.7
20260504031032 67 315 4.3 7.0 0.00 1.11 0.10 52 1013.0
20260504030110 67 286 5.2 9.6 0.00 1.11 0.10 51 1013.0
20260504025028 66 287 3.5 7.0 0.00 1.11 0.10 52 1013.2
20260504024025 66 311 5.2 11.3 0.00 1.11 0.10 54 1013.3
20260504023022 66 306 4.3 7.8 0.00 1.11 0.10 56 1013.4
20260504022040 65 329 6.1 12.2 0.00 1.11 0.10 61 1013.7
20260504021038 66 319 3.5 8.7 0.00 1.11 0.10 61 1013.8
20260504020056 65 288 3.5 7.8 0.00 1.11 0.10 64 1013.9
20260504015033 65 307 4.3 7.8 0.00 1.11 0.10 64 1013.9
20260504014051 64 294 3.5 6.1 0.00 1.11 0.10 66 1014.1
20260504013028 64 290 4.3 8.7 0.00 1.11 0.10 70 1014.2
20260504012026 64 302 3.5 6.1 0.00 1.11 0.10 71 1014.2
20260504011024 63 316 3.5 7.0 0.00 1.11 0.10 74 1014.4
20260504010021 63 309 2.6 6.1 0.00 1.11 0.10 78 1014.3
20260504005019 62 316 4.3 8.7 0.00 1.11 0.10 80 1014.5
20260504004016 61 286 3.5 7.0 0.00 1.11 0.10 83 1014.5
20260504003034 61 282 3.5 7.0 0.00 1.11 0.10 84 1014.6
20260504002032 61 302 3.5 6.1 0.00 1.11 0.10 85 1014.5
20260504001029 60 317 3.5 5.2 0.00 1.11 0.10 86 1014.5
20260504000027 60 334 3.5 7.0 0.00 1.11 0.10 88 1014.5
20260503235025 59 306 1.7 3.5 0.00 1.11 0.10 92 1014.5
20260503234022 58 0 1.7 3.5 0.00 1.11 0.10 97 1014.5
20260503233020 57 344 3.5 5.2 0.01 1.11 0.10 98 1014.5
20260503232017 57 342 2.6 4.3 0.01 1.12 0.10 98 1014.6
20260503231035 56 359 3.5 6.1 0.00 1.13 0.10 99 1014.7
20260503230032 56 2 2.6 4.3 0.00 1.13 0.10 99 1014.7
20260503225030 56 357 2.6 5.2 0.00 1.13 0.10 99 1014.6
20260503224028 55 347 2.6 4.3 0.00 1.13 0.10 99 1014.5
20260503223025 55 352 1.7 3.5 0.00 1.12 0.09 99 1014.5
20260503222043 55 21 1.7 2.6 0.00 1.13 0.09 99 1014.5
20260503221020 54 34 1.7 2.6 0.00 1.13 0.09 99 1014.5
20260503220018 54 55 1.7 2.6 0.00 1.13 0.09 99 1014.4
20260503215035 53 63 1.7 2.6 0.00 1.13 0.09 99 1014.5
20260503214034 52 76 1.7 2.6 0.00 1.13 0.09 98 1014.4
20260503213031 52 47 1.7 1.7 0.00 1.13 0.09 98 1014.2
20260503212028 52 51 0.9 2.6 0.00 1.13 0.09 98 1014.2
20260503211026 52 48 0.9 1.7 0.00 1.13 0.09 98 1014.0
20260503210024 52 37 0.9 2.6 0.00 1.13 0.09 98 1014.0
20260503205021 52 47 1.7 3.5 0.00 1.13 0.09 98 1013.7
20260503204019 52 70 1.7 2.6 0.00 1.13 0.09 98 1013.6
20260503203017 53 70 1.7 2.6 0.00 1.13 0.09 98 1013.6
20260503202034 53 58 1.7 2.6 0.00 1.13 0.09 98 1013.7
20260503201032 53 53 0.9 2.6 0.00 1.13 0.09 98 1013.6
20260503200030 53 51 1.7 2.6 0.00 1.13 0.09 98 1013.5
20260503195027 53 45 1.7 2.6 0.00 1.13 0.09 98 1013.2
20260503194025 53 53 1.7 2.6 0.00 1.13 0.09 98 1013.3
20260503193022 53 51 1.7 2.6 0.00 1.13 0.09 98 1013.4
20260503192020 53 55 1.7 2.6 0.00 1.13 0.09 98 1013.2
20260503191017 53 54 1.7 2.6 0.00 1.13 0.09 98 1013.0
20260503190035 53 42 0.9 2.6 0.00 1.13 0.09 98 1013.0
20260503185033 54 61 2.6 3.5 0.00 1.13 0.09 98 1013.0
20260503184051 54 35 2.6 5.2 0.00 1.13 0.09 98 1013.1
20260503183028 54 40 1.7 3.5 0.00 1.13 0.09 98 1013.3
20260503182025 54 10 0.9 2.6 0.00 1.13 0.09 98 1013.3
20260503181023 54 44 0.9 1.7 0.02 1.13 0.09 98 1013.0
20260503180021 54 81 1.7 2.6 0.05 1.13 0.09 98 1012.8
20260503175018 54 47 1.7 2.6 0.05 1.13 0.09 98 1013.0
20260503174016 54 82 1.7 2.6 0.05 1.13 0.09 98 1013.0
20260503173033 54 53 0.9 1.7 0.06 1.13 0.09 98 1013.2
20260503172031 54 45 1.7 2.6 0.05 1.13 0.09 98 1013.2
20260503171029 54 353 1.7 3.5 0.04 1.11 0.07 98 1013.5
20260503131031 58 205 2.6 7.0 0.06 1.03 1.03 97 1013.5